COSMOS 2251 DEB, 34908

Orbit data source: Space-Track

COSMOS 2251 DEB, 34908 is space debris in LEO originally from a launch on Wed, 16 Jun 1993 UTC launched from the Plesetsk Missile And Space Complex (PKMTR). The debris from Iridium 33, an American commercial communications satellite, has been tracked extensively since its accidental collision with the defunct Russian satellite Cosmos 2251 in 2009. This event, occurring at high speed in low Earth orbit (LEO), generated thousands of pieces of space debris, significantly increasing the risk of further collisions. The Iridium 33 debris cloud has impacted space traffic management and orbital debris mitigation strategies, making it a subject of ongoing study in space situational awareness.

Loading next visibility...
Identifier
34908, 1993-036ADD
Orbit
LEO
Country
Flag of CISCIS
Related business
Manufacturer
Unknown
Mission
Spacecraft
Bus & Motor
Unknown
Mass
Unknown
Launch date (UTC)
1993-06-16 (33 years ago)
Launch vehicle
Unknown
Launch site
Plesetsk Missile And Space Complex (PKMTR)
Object type
Payload
Rocket body
Debris
Shape & HBR
Unknown shape, 0.1 m
Radar Cross Section
Small (<0.1 m²)

Expand to show TLE details & history
Last TLE update: 12 hours ago

TLE from 12 hours ago
0 COSMOS 2251 DEB
1 34908U 93036ADD 25353.77651831  .00001086  00000-0  36857-3 0  9998
2 34908  74.0580  10.7255 0040390  24.6469  88.8338 14.37417399873809
Epoch: 2025-12-19T18:38Z
TLE epoch observation values (Epoch: 2025-12-19T18:38:11.181Z)
Latitude
61.60122°
Longitude
150.86337°
Altitude
776.76 km
Speed
7.472 km/s
True Right ascension
10h 36m 05s
True Declination
61° 27' 27"
Sunlit
Object was in full shadow at epoch
Visualization orbit readout
Latitude
Unknown
Longitude
Unknown
Altitude
Unknown
Speed
Unknown
Apparent Right ascension
Unknown
Apparent Declination
Unknown
Sunlit
N/A
Visualization observer readout
Local Sidereal Time
05:14:08
Azimuth
Unknown
Elevation
Unknown
Doppler factor
Unknown
Orbital elements
Apogee altitude
793.514 km
Perigee altitude
735.815 km
Semi-major axis
7,142.802 km
Eccentricity
0.00404
Inclination
74.058°
RAAN
10.7255°
Arg. of periapsis
24.6469°
True anomaly
89.29658°
Mean anomaly
88.8338°
Eccentric anomaly
89.06519°
Mean motion
3.59534 °/min
Orbital period
100.13 mins
BSTAR
0.00036857
Loading maneuver chart data...
Computing Atmospheric mass density...

Documentation

Showing up to 5 results
|